{"data":{"norad_id":63159,"epoch":"2026-05-25T03:17:48.094944Z","epoch_age_seconds":62857,"freshness":"FRESH","line1":"1 63159U 25046A   26145.13736221  .00000079  00000+0  10315-3 0  9992","line2":"2 63159  88.9689 303.0834 0015252  19.2727 340.8998 13.51014476 69477","mean_motion":13.51014476,"eccentricity":0.0015252,"inclination_deg":88.9689,"raan_deg":303.0834,"arg_perigee_deg":19.2727,"mean_anomaly_deg":340.8998,"bstar":0.00010315,"rev_number":6947,"period_min":106.58657072746,"perigee_km":1057.1707371438,"apogee_km":1079.8860452531,"semimajor_km":7446.6653911984,"source":"CELESTRAK","updated_at":"2026-05-25T13:38:03.537431Z"}}